contact:dominique.lefevre@mio.osupytheas.fr, maurice.libes@osupytheas.fr, didier.mallarino@osupytheas.fr
Project:EMSO http://www.emso-fr.org/EMSO-France
Depth: 2436.0 m
Title:EMSO Ligure Ouest : Data MII capteur CSTAR
DateTime,Latitude,Longitude,Instrument_Serial,Reference_Counts,Signal_Counts,Corrected_Signal_raw_counts,Calculated_Beam_c_inverse_meters,Internal_thermistor_counts
DateTime,Latitude,Longitude,Instrument_Serial,Reference_Counts,Signal_Counts,Corrected_Signal_raw_counts,Calculated_Beam_c_inverse_meters,Internal_thermistor_counts
2023-01-28T00:02:30,42.805,6.029,CST-1368DR,4404,4928,11892,01.090,551
2023-01-28T00:05:31,42.805,6.029,CST-1368DR,4404,4927,11889,01.091,551
2023-01-28T00:08:33,42.805,6.029,CST-1368DR,4404,4927,11890,01.090,551
2023-01-28T00:11:34,42.805,6.029,CST-1368DR,4404,4928,11892,01.090,551
2023-01-28T00:14:36,42.805,6.029,CST-1368DR,4404,4928,11891,01.090,551
2023-01-28T00:17:38,42.805,6.029,CST-1368DR,4404,4927,11888,01.091,551
2023-01-28T00:20:39,42.805,6.029,CST-1368DR,4404,4928,11892,01.090,551
2023-01-28T00:23:41,42.805,6.029,CST-1368DR,4404,4928,11891,01.090,551
2023-01-28T00:26:42,42.805,6.029,CST-1368DR,4404,4925,11884,01.092,551
2023-01-28T00:29:44,42.805,6.029,CST-1368DR,4404,4926,11886,01.092,551
2023-01-28T00:32:46,42.805,6.029,CST-1368DR,4404,4926,11888,01.091,551
2023-01-28T00:35:47,42.805,6.029,CST-1368DR,4404,4926,11887,01.091,551
2023-01-28T00:38:49,42.805,6.029,CST-1368DR,4404,4926,11887,01.091,551
2023-01-28T00:41:50,42.805,6.029,CST-1368DR,4404,4924,11883,01.093,551
2023-01-28T00:44:52,42.805,6.029,CST-1368DR,4404,4926,11888,01.091,551
2023-01-28T00:47:53,42.805,6.029,CST-1368DR,4404,4926,11888,01.091,551
2023-01-28T00:50:55,42.805,6.029,CST-1368DR,4404,4925,11883,01.093,551
2023-01-28T00:53:57,42.805,6.029,CST-1368DR,4404,4925,11883,01.093,551
2023-01-28T00:56:58,42.805,6.029,CST-1368DR,4404,4925,11883,01.093,551
2023-01-28T01:00:00,42.805,6.029,CST-1368DR,4404,4924,11883,01.093,551
2023-01-28T01:03:01,42.805,6.029,CST-1368DR,4404,4924,11882,01.093,551
2023-01-28T01:06:03,42.805,6.029,CST-1368DR,4404,4923,11878,01.094,551
2023-01-28T01:09:05,42.805,6.029,CST-1368DR,4404,4926,11887,01.091,551
2023-01-28T01:12:06,42.805,6.029,CST-1368DR,4404,4926,11886,01.092,551
2023-01-28T01:15:08,42.805,6.029,CST-1368DR,4404,4928,11891,01.090,551
2023-01-28T01:18:09,42.805,6.029,CST-1368DR,4404,4925,11885,01.092,551
2023-01-28T01:21:11,42.805,6.029,CST-1368DR,4404,4921,11875,01.095,551
2023-01-28T01:24:12,42.805,6.029,CST-1368DR,4404,4926,11886,01.092,551
2023-01-28T01:27:14,42.805,6.029,CST-1368DR,4404,4927,11890,01.090,551
2023-01-28T01:30:16,42.805,6.029,CST-1368DR,4404,4928,11891,01.090,551
2023-01-28T01:33:17,42.805,6.029,CST-1368DR,4404,4927,11888,01.091,551
2023-01-28T01:36:19,42.805,6.029,CST-1368DR,4404,4924,11882,01.093,551
2023-01-28T01:39:20,42.805,6.029,CST-1368DR,4404,4928,11891,01.090,551
2023-01-28T01:42:22,42.805,6.029,CST-1368DR,4404,4927,11888,01.091,551
2023-01-28T01:45:24,42.805,6.029,CST-1368DR,4404,4928,11892,01.090,551
2023-01-28T01:48:25,42.805,6.029,CST-1368DR,4404,4927,11888,01.091,551
2023-01-28T01:51:27,42.805,6.029,CST-1368DR,4404,4925,11885,01.092,551
2023-01-28T01:54:28,42.805,6.029,CST-1368DR,4404,4926,11888,01.091,551
2023-01-28T01:57:30,42.805,6.029,CST-1368DR,4404,4927,11890,01.090,551
2023-01-28T02:00:32,42.805,6.029,CST-1368DR,4404,4927,11890,01.090,551
2023-01-28T02:03:33,42.805,6.029,CST-1368DR,4404,4926,11888,01.091,551
2023-01-28T02:06:35,42.805,6.029,CST-1368DR,4404,4927,11888,01.091,551
2023-01-28T02:09:36,42.805,6.029,CST-1368DR,4404,4926,11888,01.091,551
2023-01-28T02:12:38,42.805,6.029,CST-1368DR,4404,4928,11892,01.090,551
2023-01-28T02:15:39,42.805,6.029,CST-1368DR,4404,4927,11889,01.091,551
2023-01-28T02:18:41,42.805,6.029,CST-1368DR,4404,4928,11891,01.090,551
2023-01-28T02:21:43,42.805,6.029,CST-1368DR,4404,4927,11888,01.091,551
2023-01-28T02:24:44,42.805,6.029,CST-1368DR,4404,4927,11889,01.091,551
2023-01-28T02:27:46,42.805,6.029,CST-1368DR,4404,4926,11886,01.092,551
2023-01-28T02:30:47,42.805,6.029,CST-1368DR,4404,4927,11889,01.091,551
2023-01-28T02:33:49,42.805,6.029,CST-1368DR,4404,4926,11888,01.091,551
2023-01-28T02:36:51,42.805,6.029,CST-1368DR,4404,4928,11891,01.090,551
2023-01-28T02:39:52,42.805,6.029,CST-1368DR,4404,4927,11888,01.091,551
2023-01-28T02:42:54,42.805,6.029,CST-1368DR,4404,4928,11891,01.090,551
2023-01-28T02:45:55,42.805,6.029,CST-1368DR,4404,4926,11886,01.092,551
2023-01-28T02:48:57,42.805,6.029,CST-1368DR,4404,4927,11889,01.091,551
2023-01-28T02:51:58,42.805,6.029,CST-1368DR,4404,4928,11891,01.090,551
2023-01-28T02:55:00,42.805,6.029,CST-1368DR,4404,4927,11889,01.091,551
2023-01-28T02:58:02,42.805,6.029,CST-1368DR,4404,4927,11890,01.090,551
2023-01-28T03:01:03,42.805,6.029,CST-1368DR,4404,4927,11889,01.091,551
2023-01-28T03:04:05,42.805,6.029,CST-1368DR,4404,4927,11889,01.091,551
2023-01-28T03:07:06,42.805,6.029,CST-1368DR,4404,4927,11888,01.091,551
2023-01-28T03:10:08,42.805,6.029,CST-1368DR,4404,4927,11889,01.091,551
2023-01-28T03:13:10,42.805,6.029,CST-1368DR,4404,4928,11891,01.090,551
2023-01-28T03:16:11,42.805,6.029,CST-1368DR,4404,4928,11891,01.090,551
2023-01-28T03:19:13,42.805,6.029,CST-1368DR,4404,4928,11892,01.090,550
2023-01-28T03:22:14,42.805,6.029,CST-1368DR,4404,4923,11880,01.094,551
2023-01-28T03:25:16,42.805,6.029,CST-1368DR,4404,4928,11891,01.090,551
2023-01-28T03:28:17,42.805,6.029,CST-1368DR,4404,4927,11889,01.091,551
2023-01-28T03:31:19,42.805,6.029,CST-1368DR,4404,4927,11889,01.091,551
2023-01-28T03:34:21,42.805,6.029,CST-1368DR,4404,4927,11889,01.091,551
2023-01-28T03:37:22,42.805,6.029,CST-1368DR,4404,4926,11886,01.092,551
2023-01-28T03:40:24,42.805,6.029,CST-1368DR,4404,4928,11891,01.090,551
2023-01-28T03:43:25,42.805,6.029,CST-1368DR,4404,4927,11888,01.091,551
2023-01-28T03:46:27,42.805,6.029,CST-1368DR,4404,4927,11888,01.091,551
2023-01-28T03:49:29,42.805,6.029,CST-1368DR,4404,4925,11883,01.093,551
2023-01-28T03:52:30,42.805,6.029,CST-1368DR,4404,4926,11886,01.092,551
2023-01-28T03:55:32,42.805,6.029,CST-1368DR,4404,4927,11889,01.091,551
2023-01-28T03:58:33,42.805,6.029,CST-1368DR,4404,4926,11888,01.091,551
2023-01-28T04:01:35,42.805,6.029,CST-1368DR,4404,4927,11890,01.090,551
2023-01-28T04:04:37,42.805,6.029,CST-1368DR,4404,4927,11889,01.091,551
2023-01-28T04:07:38,42.805,6.029,CST-1368DR,4404,4925,11884,01.092,551
2023-01-28T04:10:40,42.805,6.029,CST-1368DR,4404,4927,11888,01.091,551
2023-01-28T04:13:41,42.805,6.029,CST-1368DR,4404,4927,11889,01.091,551
2023-01-28T04:16:43,42.805,6.029,CST-1368DR,4404,4923,11880,01.094,551
2023-01-28T04:19:44,42.805,6.029,CST-1368DR,4404,4926,11887,01.091,551
2023-01-28T04:22:46,42.805,6.029,CST-1368DR,4404,4927,11888,01.091,551
2023-01-28T04:25:48,42.805,6.029,CST-1368DR,4404,4927,11888,01.091,551
2023-01-28T04:28:49,42.805,6.029,CST-1368DR,4404,4928,11891,01.090,551
2023-01-28T04:31:51,42.805,6.029,CST-1368DR,4404,4927,11890,01.090,551
2023-01-28T04:34:52,42.805,6.029,CST-1368DR,4404,4925,11884,01.092,551
2023-01-28T04:37:54,42.805,6.029,CST-1368DR,4404,4926,11887,01.091,551
2023-01-28T04:40:56,42.805,6.029,CST-1368DR,4404,4925,11885,01.092,551
2023-01-28T04:43:57,42.805,6.029,CST-1368DR,4404,4926,11886,01.092,551
2023-01-28T04:46:59,42.805,6.029,CST-1368DR,4404,4927,11890,01.090,551
2023-01-28T04:50:00,42.805,6.029,CST-1368DR,4404,4928,11891,01.090,551
2023-01-28T04:53:02,42.805,6.029,CST-1368DR,4404,4922,11876,01.095,551
2023-01-28T04:56:03,42.805,6.029,CST-1368DR,4404,4926,11886,01.092,551
2023-01-28T04:59:05,42.805,6.029,CST-1368DR,4404,4925,11884,01.092,551
2023-01-28T05:02:07,42.805,6.029,CST-1368DR,4404,4927,11889,01.091,551
2023-01-28T05:05:08,42.805,6.029,CST-1368DR,4404,4925,11885,01.092,551
2023-01-28T05:08:10,42.805,6.029,CST-1368DR,4404,4925,11885,01.092,551
2023-01-28T05:11:11,42.805,6.029,CST-1368DR,4404,4925,11883,01.093,551
2023-01-28T05:14:13,42.805,6.029,CST-1368DR,4404,4926,11887,01.091,551
2023-01-28T05:17:15,42.805,6.029,CST-1368DR,4404,4926,11886,01.092,551
2023-01-28T05:20:16,42.805,6.029,CST-1368DR,4404,4921,11875,01.095,551
2023-01-28T05:23:18,42.805,6.029,CST-1368DR,4404,4926,11886,01.092,551
2023-01-28T05:26:19,42.805,6.029,CST-1368DR,4404,4925,11885,01.092,551
2023-01-28T05:29:21,42.805,6.029,CST-1368DR,4404,4925,11885,01.092,551
2023-01-28T05:32:22,42.805,6.029,CST-1368DR,4404,4924,11883,01.093,551
2023-01-28T05:35:24,42.805,6.029,CST-1368DR,4404,4923,11880,01.094,551
2023-01-28T05:38:26,42.805,6.029,CST-1368DR,4404,4923,11880,01.094,551
2023-01-28T05:41:27,42.805,6.029,CST-1368DR,4404,4923,11880,01.094,551
2023-01-28T05:44:29,42.805,6.029,CST-1368DR,4404,4923,11879,01.094,551
2023-01-28T05:47:30,42.805,6.029,CST-1368DR,4404,4923,11879,01.094,551
2023-01-28T05:50:32,42.805,6.029,CST-1368DR,4404,4921,11875,01.095,551
2023-01-28T05:53:34,42.805,6.029,CST-1368DR,4404,4922,11877,01.095,551
2023-01-28T05:56:35,42.805,6.029,CST-1368DR,4404,4923,11879,01.094,551
2023-01-28T05:59:37,42.805,6.029,CST-1368DR,4404,4924,11882,01.093,551
2023-01-28T06:02:38,42.805,6.029,CST-1368DR,4404,4923,11880,01.094,551
2023-01-28T06:05:40,42.805,6.029,CST-1368DR,4404,4923,11879,01.094,551
2023-01-28T06:08:41,42.805,6.029,CST-1368DR,4404,4923,11880,01.094,551
2023-01-28T06:11:43,42.805,6.029,CST-1368DR,4404,4923,11879,01.094,551
2023-01-28T06:14:45,42.805,6.029,CST-1368DR,4404,4923,11878,01.094,551
2023-01-28T06:17:46,42.805,6.029,CST-1368DR,4404,4923,11878,01.094,551
2023-01-28T06:20:48,42.805,6.029,CST-1368DR,4404,4922,11877,01.095,551
2023-01-28T06:23:49,42.805,6.029,CST-1368DR,4404,4923,11880,01.094,551
2023-01-28T06:26:51,42.805,6.029,CST-1368DR,4404,4923,11879,01.094,551
2023-01-28T06:29:53,42.805,6.029,CST-1368DR,4404,4922,11878,01.094,551
2023-01-28T06:32:54,42.805,6.029,CST-1368DR,4404,4923,11878,01.094,551
2023-01-28T06:35:56,42.805,6.029,CST-1368DR,4404,4922,11878,01.094,551
2023-01-28T06:38:57,42.805,6.029,CST-1368DR,4404,4922,11878,01.094,551
2023-01-28T06:41:59,42.805,6.029,CST-1368DR,4404,4922,11877,01.095,551
2023-01-28T06:45:00,42.805,6.029,CST-1368DR,4404,4922,11877,01.095,551
2023-01-28T06:48:02,42.805,6.029,CST-1368DR,4404,4923,11878,01.094,551
2023-01-28T06:51:04,42.805,6.029,CST-1368DR,4404,4923,11879,01.094,551
2023-01-28T06:54:05,42.805,6.029,CST-1368DR,4404,4923,11880,01.094,551
2023-01-28T06:57:07,42.805,6.029,CST-1368DR,4404,4923,11878,01.094,551
2023-01-28T07:00:08,42.805,6.029,CST-1368DR,4404,4921,11875,01.095,551
2023-01-28T07:03:10,42.805,6.029,CST-1368DR,4403,4923,11882,01.093,551
2023-01-28T07:06:12,42.805,6.029,CST-1368DR,4404,4923,11879,01.094,551
2023-01-28T07:09:13,42.805,6.029,CST-1368DR,4404,4923,11879,01.094,551
2023-01-28T07:12:15,42.805,6.029,CST-1368DR,4404,4922,11877,01.095,551
2023-01-28T07:15:16,42.805,6.029,CST-1368DR,4404,4922,11877,01.095,551
2023-01-28T07:18:18,42.805,6.029,CST-1368DR,4404,4922,11876,01.095,551
2023-01-28T07:21:19,42.805,6.029,CST-1368DR,4404,4922,11878,01.094,551
2023-01-28T07:24:21,42.805,6.029,CST-1368DR,4404,4922,11877,01.095,551
2023-01-28T07:27:23,42.805,6.029,CST-1368DR,4404,4922,11876,01.095,551
2023-01-28T07:30:24,42.805,6.029,CST-1368DR,4404,4924,11883,01.093,551
2023-01-28T07:33:26,42.805,6.029,CST-1368DR,4404,4922,11878,01.094,551
2023-01-28T07:36:27,42.805,6.029,CST-1368DR,4404,4922,11877,01.095,551
2023-01-28T07:39:29,42.805,6.029,CST-1368DR,4404,4922,11877,01.095,551
2023-01-28T07:42:31,42.805,6.029,CST-1368DR,4404,4923,11878,01.094,551
2023-01-28T07:45:32,42.805,6.029,CST-1368DR,4403,4923,11882,01.093,551
2023-01-28T07:48:34,42.805,6.029,CST-1368DR,4404,4922,11878,01.094,551
2023-01-28T07:51:35,42.805,6.029,CST-1368DR,4404,4923,11878,01.094,551
2023-01-28T07:54:37,42.805,6.029,CST-1368DR,4404,4922,11878,01.094,551
2023-01-28T07:57:38,42.805,6.029,CST-1368DR,4404,4923,11878,01.094,551
2023-01-28T08:00:40,42.805,6.029,CST-1368DR,4404,4922,11877,01.095,551
2023-01-28T08:03:42,42.805,6.029,CST-1368DR,4404,4922,11877,01.095,551
2023-01-28T08:06:43,42.805,6.029,CST-1368DR,4403,4922,11879,01.094,551
2023-01-28T08:09:45,42.805,6.029,CST-1368DR,4403,4921,11878,01.094,551
2023-01-28T08:12:46,42.805,6.029,CST-1368DR,4404,4921,11875,01.095,551
2023-01-28T08:15:48,42.805,6.029,CST-1368DR,4404,4922,11877,01.095,551
2023-01-28T08:18:50,42.805,6.029,CST-1368DR,4404,4922,11877,01.095,551
2023-01-28T08:21:51,42.805,6.029,CST-1368DR,4404,4922,11876,01.095,551
2023-01-28T08:24:53,42.805,6.029,CST-1368DR,4404,4924,11882,01.093,551
2023-01-28T08:27:54,42.805,6.029,CST-1368DR,4404,4922,11877,01.095,551
2023-01-28T08:30:56,42.805,6.029,CST-1368DR,4404,4920,11872,01.096,551
2023-01-28T08:33:57,42.805,6.029,CST-1368DR,4404,4922,11877,01.095,551
2023-01-28T08:36:59,42.805,6.029,CST-1368DR,4404,4922,11877,01.095,551
2023-01-28T08:40:01,42.805,6.029,CST-1368DR,4404,4922,11877,01.095,551
2023-01-28T08:43:02,42.805,6.029,CST-1368DR,4403,4925,11887,01.091,551
2023-01-28T08:46:04,42.805,6.029,CST-1368DR,4404,4922,11877,01.095,551
2023-01-28T08:49:05,42.805,6.029,CST-1368DR,4404,4922,11878,01.094,551
2023-01-28T08:52:07,42.805,6.029,CST-1368DR,4404,4922,11878,01.094,551
2023-01-28T08:55:09,42.805,6.029,CST-1368DR,4403,4922,11880,01.094,551
2023-01-28T08:58:10,42.805,6.029,CST-1368DR,4403,4922,11880,01.094,551
2023-01-28T09:01:12,42.805,6.029,CST-1368DR,4403,4923,11882,01.093,551
2023-01-28T09:04:13,42.805,6.029,CST-1368DR,4403,4921,11878,01.094,551
2023-01-28T09:07:15,42.805,6.029,CST-1368DR,4404,4923,11880,01.094,551
2023-01-28T09:10:16,42.805,6.029,CST-1368DR,4404,4923,11880,01.094,551
2023-01-28T09:13:18,42.805,6.029,CST-1368DR,4404,4921,11874,01.096,551
2023-01-28T09:16:20,42.805,6.029,CST-1368DR,4403,4921,11877,01.095,551
2023-01-28T09:19:21,42.805,6.029,CST-1368DR,4403,4922,11879,01.094,551
2023-01-28T09:22:23,42.805,6.029,CST-1368DR,4403,4922,11880,01.094,551
2023-01-28T09:25:24,42.805,6.029,CST-1368DR,4404,4923,11878,01.094,551
2023-01-28T09:28:26,42.805,6.029,CST-1368DR,4403,4922,11880,01.094,551
2023-01-28T09:31:28,42.805,6.029,CST-1368DR,4403,4922,11879,01.094,551
2023-01-28T09:34:29,42.805,6.029,CST-1368DR,4403,4922,11880,01.094,551
2023-01-28T09:37:31,42.805,6.029,CST-1368DR,4403,4922,11880,01.094,551
2023-01-28T09:40:32,42.805,6.029,CST-1368DR,4403,4922,11880,01.094,551
2023-01-28T09:43:34,42.805,6.029,CST-1368DR,4403,4923,11881,01.093,551
2023-01-28T09:46:35,42.805,6.029,CST-1368DR,4403,4923,11881,01.093,551
2023-01-28T09:49:37,42.805,6.029,CST-1368DR,4403,4923,11883,01.093,551
2023-01-28T09:52:39,42.805,6.029,CST-1368DR,4403,4923,11881,01.093,551
2023-01-28T09:55:40,42.805,6.029,CST-1368DR,4403,4923,11881,01.093,551
2023-01-28T09:58:42,42.805,6.029,CST-1368DR,4403,4923,11881,01.093,551
2023-01-28T10:01:43,42.805,6.029,CST-1368DR,4403,4923,11883,01.093,551
2023-01-28T10:04:45,42.805,6.029,CST-1368DR,4403,4923,11882,01.093,551
2023-01-28T10:07:47,42.805,6.029,CST-1368DR,4403,4923,11882,01.093,551
2023-01-28T10:10:48,42.805,6.029,CST-1368DR,4403,4922,11880,01.094,551
2023-01-28T10:13:50,42.805,6.029,CST-1368DR,4403,4923,11881,01.093,551
2023-01-28T10:16:51,42.805,6.029,CST-1368DR,4404,4922,11877,01.095,551
2023-01-28T10:19:53,42.805,6.029,CST-1368DR,4403,4922,11879,01.094,551
2023-01-28T10:22:54,42.805,6.029,CST-1368DR,4403,4922,11880,01.094,551
2023-01-28T10:25:56,42.805,6.029,CST-1368DR,4403,4922,11880,01.094,551
2023-01-28T10:28:58,42.805,6.029,CST-1368DR,4403,4922,11879,01.094,551
2023-01-28T10:31:59,42.805,6.029,CST-1368DR,4403,4923,11881,01.093,551
2023-01-28T10:35:01,42.805,6.029,CST-1368DR,4403,4923,11881,01.093,551
2023-01-28T10:38:02,42.805,6.029,CST-1368DR,4403,4923,11882,01.093,551
2023-01-28T10:41:04,42.805,6.029,CST-1368DR,4403,4922,11880,01.094,551
2023-01-28T10:44:06,42.805,6.029,CST-1368DR,4403,4922,11879,01.094,551
2023-01-28T10:47:07,42.805,6.029,CST-1368DR,4403,4922,11880,01.094,551
2023-01-28T10:50:09,42.805,6.029,CST-1368DR,4403,4922,11880,01.094,551
2023-01-28T10:53:10,42.805,6.029,CST-1368DR,4403,4923,11881,01.093,551
2023-01-28T10:56:12,42.805,6.029,CST-1368DR,4403,4923,11881,01.093,551
2023-01-28T10:59:13,42.805,6.029,CST-1368DR,4403,4923,11882,01.093,551
2023-01-28T11:02:15,42.805,6.029,CST-1368DR,4403,4923,11882,01.093,551
2023-01-28T11:05:17,42.805,6.029,CST-1368DR,4403,4923,11882,01.093,551
2023-01-28T11:08:18,42.805,6.029,CST-1368DR,4403,4922,11880,01.094,551
2023-01-28T11:11:20,42.805,6.029,CST-1368DR,4403,4922,11880,01.094,551
2023-01-28T11:14:21,42.805,6.029,CST-1368DR,4403,4924,11884,01.092,551
2023-01-28T11:17:23,42.805,6.029,CST-1368DR,4403,4923,11882,01.093,551
2023-01-28T11:20:25,42.805,6.029,CST-1368DR,4403,4923,11881,01.093,551
2023-01-28T11:23:26,42.805,6.029,CST-1368DR,4403,4923,11881,01.093,551
2023-01-28T11:26:28,42.805,6.029,CST-1368DR,4403,4923,11881,01.093,551
2023-01-28T11:29:29,42.805,6.029,CST-1368DR,4403,4922,11880,01.094,551
2023-01-28T11:32:31,42.805,6.029,CST-1368DR,4403,4923,11881,01.093,551
2023-01-28T11:35:32,42.805,6.029,CST-1368DR,4403,4922,11879,01.094,551
2023-01-28T11:38:34,42.805,6.029,CST-1368DR,4403,4923,11882,01.093,551
2023-01-28T11:41:36,42.805,6.029,CST-1368DR,4403,4923,11881,01.093,551
2023-01-28T11:44:37,42.805,6.029,CST-1368DR,4403,4920,11874,01.096,551
2023-01-28T11:47:39,42.805,6.029,CST-1368DR,4403,4918,11871,01.097,551
2023-01-28T11:50:40,42.805,6.029,CST-1368DR,4403,4922,11879,01.094,551
2023-01-28T11:53:42,42.805,6.029,CST-1368DR,4403,4922,11879,01.094,551
2023-01-28T11:56:44,42.805,6.029,CST-1368DR,4403,4922,11879,01.094,551
2023-01-28T11:59:45,42.805,6.029,CST-1368DR,4403,4922,11879,01.094,551
2023-01-28T12:02:47,42.805,6.029,CST-1368DR,4403,4922,11880,01.094,551
2023-01-28T12:05:48,42.805,6.029,CST-1368DR,4403,4923,11882,01.093,551
2023-01-28T12:08:50,42.805,6.029,CST-1368DR,4403,4922,11880,01.094,551
2023-01-28T12:11:52,42.805,6.029,CST-1368DR,4403,4922,11880,01.094,551
2023-01-28T12:14:53,42.805,6.029,CST-1368DR,4403,4922,11880,01.094,551
2023-01-28T12:17:55,42.805,6.029,CST-1368DR,4403,4923,11883,01.093,551
2023-01-28T12:20:56,42.805,6.029,CST-1368DR,4403,4922,11880,01.094,551
2023-01-28T12:23:58,42.805,6.029,CST-1368DR,4403,4922,11879,01.094,551
2023-01-28T12:26:59,42.805,6.029,CST-1368DR,4403,4922,11880,01.094,551
2023-01-28T12:30:01,42.805,6.029,CST-1368DR,4403,4922,11879,01.094,551
2023-01-28T12:33:03,42.805,6.029,CST-1368DR,4403,4921,11877,01.095,551
2023-01-28T12:36:04,42.805,6.029,CST-1368DR,4403,4920,11874,01.096,551
2023-01-28T12:39:06,42.805,6.029,CST-1368DR,4403,4922,11880,01.094,551
2023-01-28T12:42:07,42.805,6.029,CST-1368DR,4403,4922,11879,01.094,551
2023-01-28T12:45:09,42.805,6.029,CST-1368DR,4403,4915,11863,01.099,551
2023-01-28T12:48:11,42.805,6.029,CST-1368DR,4403,4915,11863,01.099,551
2023-01-28T12:51:12,42.805,6.029,CST-1368DR,4403,4917,11868,01.098,551
2023-01-28T12:54:14,42.805,6.029,CST-1368DR,4403,4916,11864,01.099,551
2023-01-28T12:57:15,42.805,6.029,CST-1368DR,4403,4915,11862,01.100,551
2023-01-28T13:00:17,42.805,6.029,CST-1368DR,4403,4917,11868,01.098,551
2023-01-28T13:03:18,42.805,6.029,CST-1368DR,4403,4916,11864,01.099,551
2023-01-28T13:06:20,42.805,6.029,CST-1368DR,4403,4916,11865,01.099,551
2023-01-28T13:09:22,42.805,6.029,CST-1368DR,4403,4917,11867,01.098,551
2023-01-28T13:12:23,42.805,6.029,CST-1368DR,4403,4917,11867,01.098,551
2023-01-28T13:15:25,42.805,6.029,CST-1368DR,4403,4917,11867,01.098,551
2023-01-28T13:18:26,42.805,6.029,CST-1368DR,4403,4916,11866,01.098,551
2023-01-28T13:21:28,42.805,6.029,CST-1368DR,4403,4917,11867,01.098,551
2023-01-28T13:24:30,42.805,6.029,CST-1368DR,4403,4914,11861,01.100,551
2023-01-28T13:27:31,42.805,6.029,CST-1368DR,4403,4915,11864,01.099,551
2023-01-28T13:30:33,42.805,6.029,CST-1368DR,4403,4917,11867,01.098,551
2023-01-28T13:33:34,42.805,6.029,CST-1368DR,4403,4912,11855,01.102,551
2023-01-28T13:36:36,42.805,6.029,CST-1368DR,4403,4916,11864,01.099,551
2023-01-28T13:39:37,42.805,6.029,CST-1368DR,4403,4915,11863,01.099,551
2023-01-28T13:42:39,42.805,6.029,CST-1368DR,4403,4913,11858,01.101,551
2023-01-28T13:45:41,42.805,6.029,CST-1368DR,4403,4915,11864,01.099,551
2023-01-28T13:48:42,42.805,6.029,CST-1368DR,4403,4916,11865,01.099,551
2023-01-28T13:51:44,42.805,6.029,CST-1368DR,4403,4915,11862,01.100,551
2023-01-28T13:54:45,42.805,6.029,CST-1368DR,4403,4916,11865,01.099,551
2023-01-28T13:57:47,42.805,6.029,CST-1368DR,4403,4917,11867,01.098,551
2023-01-28T14:00:49,42.805,6.029,CST-1368DR,4403,4916,11865,01.099,551
2023-01-28T14:03:50,42.805,6.029,CST-1368DR,4403,4917,11867,01.098,551
2023-01-28T14:06:52,42.805,6.029,CST-1368DR,4403,4916,11865,01.099,551
2023-01-28T14:09:53,42.805,6.029,CST-1368DR,4403,4916,11865,01.099,551
2023-01-28T14:12:55,42.805,6.029,CST-1368DR,4403,4915,11863,01.099,551
2023-01-28T14:15:57,42.805,6.029,CST-1368DR,4403,4916,11865,01.099,551
2023-01-28T14:18:58,42.805,6.029,CST-1368DR,4403,4916,11866,01.098,551
2023-01-28T14:22:00,42.805,6.029,CST-1368DR,4403,4916,11865,01.099,551
2023-01-28T14:25:01,42.805,6.029,CST-1368DR,4403,4916,11865,01.099,551
2023-01-28T14:28:03,42.805,6.029,CST-1368DR,4403,4915,11864,01.099,551
2023-01-28T14:31:04,42.805,6.029,CST-1368DR,4403,4915,11862,01.100,551
2023-01-28T14:34:06,42.805,6.029,CST-1368DR,4403,4915,11864,01.099,551
2023-01-28T14:37:08,42.805,6.029,CST-1368DR,4403,4915,11863,01.099,551
2023-01-28T14:40:09,42.805,6.029,CST-1368DR,4403,4916,11864,01.099,551
2023-01-28T14:43:11,42.805,6.029,CST-1368DR,4403,4915,11864,01.099,551
2023-01-28T14:46:12,42.805,6.029,CST-1368DR,4403,4916,11864,01.099,551
2023-01-28T14:49:14,42.805,6.029,CST-1368DR,4403,4915,11863,01.099,551
2023-01-28T14:52:16,42.805,6.029,CST-1368DR,4403,4917,11868,01.098,551
2023-01-28T14:55:17,42.805,6.029,CST-1368DR,4403,4916,11865,01.099,551
2023-01-28T14:58:19,42.805,6.029,CST-1368DR,4403,4916,11864,01.099,551
2023-01-28T15:01:20,42.805,6.029,CST-1368DR,4403,4916,11865,01.099,551
2023-01-28T15:04:22,42.805,6.029,CST-1368DR,4403,4916,11865,01.099,551
2023-01-28T15:07:23,42.805,6.029,CST-1368DR,4403,4916,11866,01.098,551
2023-01-28T15:10:25,42.805,6.029,CST-1368DR,4403,4916,11865,01.099,551
2023-01-28T15:13:27,42.805,6.029,CST-1368DR,4403,4916,11866,01.098,551
2023-01-28T15:16:28,42.805,6.029,CST-1368DR,4403,4916,11864,01.099,551
2023-01-28T15:19:30,42.805,6.029,CST-1368DR,4403,4916,11866,01.098,551
2023-01-28T15:22:31,42.805,6.029,CST-1368DR,4403,4917,11867,01.098,551
2023-01-28T15:25:33,42.805,6.029,CST-1368DR,4403,4916,11865,01.099,551
2023-01-28T15:28:35,42.805,6.029,CST-1368DR,4403,4916,11865,01.099,551
2023-01-28T15:31:36,42.805,6.029,CST-1368DR,4403,4916,11864,01.099,551
2023-01-28T15:34:38,42.805,6.029,CST-1368DR,4403,4916,11865,01.099,551
2023-01-28T15:37:39,42.805,6.029,CST-1368DR,4403,4916,11866,01.098,551
2023-01-28T15:40:41,42.805,6.029,CST-1368DR,4403,4915,11863,01.099,551
2023-01-28T15:43:42,42.805,6.029,CST-1368DR,4403,4916,11864,01.099,551
2023-01-28T15:46:44,42.805,6.029,CST-1368DR,4403,4915,11864,01.099,551
2023-01-28T15:49:46,42.805,6.029,CST-1368DR,4403,4915,11864,01.099,551
2023-01-28T15:52:47,42.805,6.029,CST-1368DR,4403,4916,11864,01.099,551
2023-01-28T15:55:49,42.805,6.029,CST-1368DR,4403,4916,11866,01.098,551
2023-01-28T15:58:50,42.805,6.029,CST-1368DR,4403,4916,11865,01.099,551
2023-01-28T16:01:52,42.805,6.029,CST-1368DR,4403,4916,11864,01.099,551
2023-01-28T16:04:54,42.805,6.029,CST-1368DR,4403,4917,11867,01.098,551
2023-01-28T16:07:55,42.805,6.029,CST-1368DR,4403,4916,11864,01.099,551
2023-01-28T16:10:57,42.805,6.029,CST-1368DR,4403,4914,11860,01.100,551
2023-01-28T16:13:58,42.805,6.029,CST-1368DR,4403,4915,11864,01.099,551
2023-01-28T16:17:00,42.805,6.029,CST-1368DR,4403,4915,11864,01.099,551
2023-01-28T16:20:01,42.805,6.029,CST-1368DR,4403,4915,11863,01.099,551
2023-01-28T16:23:03,42.805,6.029,CST-1368DR,4403,4915,11863,01.099,551
2023-01-28T16:26:05,42.805,6.029,CST-1368DR,4403,4915,11863,01.099,551
2023-01-28T16:29:06,42.805,6.029,CST-1368DR,4403,4914,11861,01.100,551
2023-01-28T16:32:08,42.805,6.029,CST-1368DR,4403,4914,11859,01.101,551
2023-01-28T16:35:09,42.805,6.029,CST-1368DR,4403,4909,11848,01.105,551
2023-01-28T16:38:11,42.805,6.029,CST-1368DR,4403,4916,11865,01.099,551